DECAYED

STARLINK-2168, 47751 (Decayed)

Orbit data source: Space-Track

STARLINK-2168, 47751 was a payload satellite owned by SpaceX/Seattle (US) in LEO that was launched on Thu, 04 Mar 2021 UTC via an FALCON 9 launch vehicle from the Air Force Eastern Test Range (AFETR). Payload-class satellites include a variety of spacecraft equipped with specific instruments for various scientific and technological missions. These include communications satellites like Starlink; space stations such as the ISS; scientific satellites like the Hubble; Earth observation satellites from companies like Planet Labs, Umbra, and HawkEye 360; GPS; miniature CubeSats for education and research; and military/defense satellites.

Not visible in the next 10 days
Identifier
47751, 2021-017AF
Orbit
Decayed
Last TLE update
11 months ago
Origin
Manufacturer
SpaceX/Seattle
Mission
Decayed Commercial Communications
Bus & Motor
STARLINK, Unknown motor
Mass
260 kg wet, ~248 kg dry
Launch date (UTC)
2021-03-04 (4 years ago)
Launch vehicle
FALCON 9
Launch site
Air Force Eastern Test Range (AFETR)
Object type
Payload
Rocket body
Debris
Shape & HBR
Box + 1 Pan, 8.86 m
Radar Cross Section
13.562 m², Large (>1 m²)

Expand to show TLE details & history

TLE from 11 months ago
0 STARLINK-2168
1 47751U 21017AF  24216.64138023  .17922293  11999-4  49173-2 0  9991
2 47751  53.0345 243.3476 0002904 252.8874 207.4139 16.27283085190138
Epoch: 2024-08-03T15:23Z
TLE epoch observation values (Epoch: 2024-08-03T15:23:35.251Z)
Latitude
51.98476°
Longitude
166.56403°
Altitude
207.761 km
Speed
7.787 km/s
True Right ascension
23h 20m 38s
True Declination
51° 48' 14"
Sunlit
Object was in partial shadow at epoch
Visualization orbit readout
Visualization observer readout
Orbital elements
Apogee altitude
202.05 km
Perigee altitude
198.229 km
Semi-major axis
6,578.276 km
Eccentricity
0.00029
Inclination
53.0345°
RAAN
243.3476°
Arg. of periapsis
252.8874°
True anomaly
Unknown
Mean anomaly
207.4139°
Eccentric anomaly
Unknown
Mean motion
4.06794 °/min
Orbital period
88.5 mins
BSTAR
0.0049173
Loading maneuver chart data...
Loading SW <> Apogee altitude chart data...
Loading historical data...
Loading historical data...
Loading historical data...
Loading historical data...
Loading historical data...
Loading historical data...
Loading historical data...

STARLINK-2168 Visibility

Observer location: undefined°, undefined°

This satellite is decayed
Span
Click to sort rows by Start time (UTC) header in descending order
Start Az.
Max El. time (UTC)
Max El. Az.
Max El.
End time (UTC)
End Az.
|